Regional Weather Roundup
Issued by NWS Sterling, VA

Home | Current Version | Previous Version | Graphics & Text | Print | Product List | Glossary On
Versions: 1 2 3 4 5 6 7 8 9 10 11 12 13 14 15 16 17 18 19 20 21 22 23 24 25 26 27 28 29 30 31 32 33 34 35 36 37 38 39 40 41 42 43 44 45 46 47 48 49 50
000
ASUS41 KLWX 172110
RWRLWX

REGIONAL WEATHER ROUNDUP
NATIONAL WEATHER SERVICE BALTIMORE MD/WASHINGTON DC
500 PM EDT WED SEP 17 2014

Note: "FAIR" indicates few or no clouds below 12,000 feet
with no significant weather and/or obstructions to visibility.
 TC=TEMPERATURE CELSIUS

 * =Non NWS site. Station does not report precipitation (e.g. rain,
    snow, etc.), thunder, or fog.

DCZ001-MDZ009-015-VAZ040>042-051-053>054-172200-
WASHINGTON METRO

CITY           SKY/WX    TMP DP  RH WIND       PRES   REMARKS
WASHINGTON NAT PTSUNNY   78  47  33 CALM      29.97S
DULLES         PTSUNNY   72  49  44 W6        29.98R
ANDREWS AFB    MOSUNNY   70  52  52 E6        29.97S
QUANTICO       MOSUNNY   75  50  41 SW5       29.97F
COLLEGE PARK*  CLOUDY    73  52  46 E3        29.97S
LEESBURG*      PTSUNNY   73  52  46 CALM      29.98S
GAITHERSBURG*  MOSUNNY   72  50  46 CALM      30.01S

$$

MDZ006>007-011-014-172200-
BALTIMORE METRO

CITY           SKY/WX    TMP DP  RH WIND       PRES   REMARKS
BWI AIRPORT    PTSUNNY   71  49  45 CALM      29.97S
MD SCIENCE CTR   N/A     73  49  42 MISG      29.97S
MARTIN STATE   SUNNY     73  50  43 SE7       29.99R
ANNAPOLIS      SUNNY     71  49  45 SE6       29.97S
FORT MEADE*    CLOUDY    70  52  52 SE5       29.99S

$$

MDZ012-015-019>023-172200-
MARYLAND EASTERN SHORE

CITY           SKY/WX    TMP DP  RH WIND       PRES   REMARKS
OCEAN CITY     SUNNY     71  48  43 E8        29.98S
SALISBURY      PTSUNNY   75  51  43 SE8       29.97R
BAY BRIDGE AP*   N/A     72  45  37 NW5       29.97S
CAMBRIDGE*     PTSUNNY   77  46  33 NW5       29.97R
EASTON*        MOSUNNY   75  48  38 N5        30.01R

$$

MDZ017>025-172200-
SOUTHERN MARYLAND

CITY           SKY/WX    TMP DP  RH WIND       PRES   REMARKS
PATUXENT RIVER MOSUNNY   72  51  47 E7        29.96F
ST INIGOES     SUNNY     74  48  39 N6        29.96S
LEONARDTOWN*   PTSUNNY   72  50  46 CALM      29.98S

$$

MDZ003>005-172200-
NORTH CENTRAL MARYLAND

CITY           SKY/WX    TMP DP  RH WIND       PRES   REMARKS
FREDERICK*     MOSUNNY   75  48  38 CALM      30.00S
HAGERSTOWN APT SUNNY     71  43  36 SW5       29.97F
WESTMINSTER*   SUNNY     70  46  43 W3        29.98S

$$

MDZ501>502-172200-
WESTERN MARYLAND

CITY           SKY/WX    TMP DP  RH WIND       PRES   REMARKS
OAKLAND*       NOT AVBL
CUMBERLAND*    MOSUNNY   77  45  31 SE5       30.00S

$$

VAZ025>031-172200-
SHENANDOAH VALLEY

CITY           SKY/WX    TMP DP  RH WIND       PRES   REMARKS
WINCHESTER*    SUNNY     73  46  38 S5        29.97F
STAUNTON*      PTSUNNY   73  48  41 S6        30.00S

$$

WVZ021-048>050-054>055-172200-
EASTERN WEST VIRGINIA PANHANDLE

CITY           SKY/WX    TMP DP  RH WIND       PRES   REMARKS
MARTINSBURG    SUNNY     73  46  38 SW7       29.98S
PETERSBURG*    MOSUNNY   75  46  35 SE5       29.96S

$$

VAZ036>039-050-172200-
CENTRAL FOOTHILLS

CITY           SKY/WX    TMP DP  RH WIND       PRES   REMARKS
CHARLOTTESVILL MOSUNNY   73  51  46 CALM      29.97S
ORANGE*        PTSUNNY   73  50  43 CALM      29.98S

$$

VAZ055>057-172200-
NORTH AND CENTRAL PIEDMONT

CITY           SKY/WX    TMP DP  RH WIND       PRES   REMARKS
FREDERICKSBRG* MOSUNNY   75  52  44 CALM      29.96S
STAFFORD*      MOSUNNY   73  52  47 CALM      30.01R

$$

NCZ024-NYZ072-PAZ021-071-VAZ022-071-172200-
OTHER REGIONAL OBSERVATIONS

CITY           SKY/WX    TMP DP  RH WIND       PRES   REMARKS
NEW YORK CITY  SUNNY     70  42  36 VRB3      29.98S
PHILADELPHIA   MOSUNNY   74  46  36 CALM      29.97S
PITTSBURGH     PTSUNNY   67  47  48 W3        29.98S
ROANOKE        MOSUNNY   71  54  54 VRB6      30.00F
RICHMOND       PTSUNNY   76  54  46 E8        29.95S
RALEIGH        PTSUNNY   76  62  62 E6        29.93S

$$

ANZ530>537-172200-
MARINE OBSERVATIONS

STATION/POSITION TIME  TEMP    WIND        PRES
                       AIR SEA DIR/SP/G
                 (UTC) (F)     (DEG/KT/KT) (MB)
THOMAS PT LIGHT  2100   72 75   CALM  /  1 1015.9F
BALT KEY BRIDGE  2100   71     120/  5/  7 1014.7S
COVE POINT       2100   71      40/  3/  4 1014.6F
LEWISETTA        2100   72 75  130/  4/  5 1014.4R
SOLOMONS ISLAND  2100      77                N/A
PINEY POINT      2100          170/  7/  8   N/A

$$



USA.gov is the U.S. government's official web portal to all federal, state and local government web resources and services.